KC2DUX-10 Weather Reports


Display with metric or nautical units.
time (UTC)temp
F
wind
direction
speed
MPH
gust
MPH
rain 1hr
in
rain 24hr
in
rain mn
in
humidity
%
barometer
mb
20210515174144 0 167 6.0 11.0 0.00 0.00 0.00 1024.0
20210515173604 0 169 7.0 12.0 0.00 0.00 0.00 1024.0
20210515173216 0 157 5.0 11.0 0.00 0.00 0.00 1024.1
20210515172608 0 196 6.0 14.0 0.00 0.00 0.00 1024.1
20210515172051 0 161 6.0 14.0 0.00 0.00 0.00 1024.2
20210515171722 0 181 8.0 15.0 0.00 0.00 0.00 1024.2
20210515171047 0 205 10.0 14.0 0.00 0.00 0.00 1024.3
20210515170546 0 196 10.0 13.0 0.00 0.00 0.00 1024.3
20210515170222 0 166 6.0 10.0 0.00 0.00 0.00 1024.3
20210515165543 0 151 6.0 10.0 0.00 0.00 0.00 1024.4
20210515165041 0 173 5.0 11.0 0.00 0.00 0.00 1024.3
20210515164557 0 185 5.0 11.0 0.00 0.00 0.00 1024.4
20210515164045 0 157 6.0 11.0 0.00 0.00 0.00 1024.4
20210515163537 0 175 6.0 12.0 0.00 0.00 0.00 1024.4
20210515163044 0 165 6.0 12.0 0.00 0.00 0.00 1024.5
20210515162534 0 174 5.0 8.0 0.00 0.00 0.00 1024.6
20210515162036 0 162 5.0 9.0 0.00 0.00 0.00 1024.5
20210515161546 0 179 5.0 9.0 0.00 0.00 0.00 1024.5
20210515161030 0 184 5.0 8.0 0.00 0.00 0.00 1024.5
20210515160539 0 174 5.0 8.0 0.00 0.00 0.00 1024.5
20210515160057 0 166 5.0 8.0 0.00 0.00 0.00 1024.5
20210515155533 0 178 5.0 8.0 0.00 0.00 0.00 1024.5
20210515155038 0 167 4.0 7.0 0.00 0.00 0.00 1024.5
20210515154555 0 160 5.0 7.0 0.00 0.00 0.00 1024.5
20210515154021 0 175 4.0 6.0 0.00 0.00 0.00 1024.6
20210515153522 0 161 5.0 8.0 0.00 0.00 0.00 1024.6
20210515153022 0 159 5.0 8.0 0.00 0.00 0.00 1024.5
20210515152525 0 163 4.0 7.0 0.00 0.00 0.00 1024.6
20210515152018 0 172 5.0 8.0 0.00 0.00 0.00 1024.5
20210515151516 0 169 5.0 8.0 0.00 0.00 0.00 1024.5
20210515151012 0 179 4.0 6.0 0.00 0.00 0.00 1024.5
20210515150510 0 182 5.0 7.0 0.00 0.00 0.00 1024.6
20210515150011 0 167 3.0 6.0 0.00 0.00 0.00 1024.6
20210515145507 0 165 3.0 6.0 0.00 0.00 0.00 1024.5
20210515145009 0 169 3.0 5.0 0.00 0.00 0.00 1024.4
20210515144504 0 161 3.0 6.0 0.00 0.00 0.00 1024.3
20210515144009 0 163 4.0 5.0 0.00 0.00 0.00 1024.3
20210515143504 0 163 4.0 6.0 0.00 0.00 0.00 1024.4
20210515143126 0 174 4.0 6.0 0.00 0.00 0.00 1024.3
20210515142608 0 169 4.0 6.0 0.00 0.00 0.00 1024.3
20210515142107 0 360 4.0 8.0 0.00 0.00 0.00 1024.3
20210515141743 0 186 4.0 8.0 0.00 0.00 0.00 1024.3
20210515141054 0 155 4.0 6.0 0.00 0.00 0.00 1024.3
20210515140613 0 155 3.0 5.0 0.00 0.00 0.00 1024.3
20210515140058 0 163 2.0 4.0 0.00 0.00 0.00 1024.3
20210515135640 0 188 2.0 4.0 0.00 0.00 0.00 1024.2
20210515135047 0 160 3.0 6.0 0.00 0.00 0.00 1024.2
20210515134552 0 165 4.0 6.0 0.00 0.00 0.00 1024.2
20210515134049 0 165 3.0 5.0 0.00 0.00 0.00 1024.2
20210515133543 0 182 3.0 6.0 0.00 0.00 0.00 1024.2
20210515133115 0 156 4.0 7.0 0.00 0.00 0.00 1024.2
20210515132545 0 165 4.0 7.0 0.00 0.00 0.00 1024.2
20210515132044 0 164 4.0 7.0 0.00 0.00 0.00 1024.1
20210515131616 0 165 3.0 7.0 0.00 0.00 0.00 1024.1
20210515131035 0 159 3.0 6.0 0.00 0.00 0.00 1024.1
20210515130534 0 166 3.0 6.0 0.00 0.00 0.00 1024.0
20210515130109 0 163 3.0 6.0 0.00 0.00 0.00 1024.0
20210515125038 0 172 2.0 6.0 0.00 0.00 0.00 1024.0
20210515124617 0 188 3.0 6.0 0.00 0.00 0.00 1024.0
20210515124034 0 225 3.0 5.0 0.00 0.00 0.00 1024.0
20210515123524 0 161 2.0 6.0 0.00 0.00 0.00 1023.9
20210515123112 0 191 3.0 7.0 0.00 0.00 0.00 1023.9
20210515122524 0 214 4.0 9.0 0.00 0.00 0.00 1023.9
20210515122027 0 221 5.0 9.0 0.00 0.00 0.00 1023.9
20210515121530 0 215 6.0 9.0 0.00 0.00 0.00 1023.9
20210515121017 0 221 5.0 8.0 0.00 0.00 0.00 1023.9
20210515120517 0 205 6.0 8.0 0.00 0.00 0.00 1023.9
20210515120017 0 229 5.0 7.0 0.00 0.00 0.00 1023.8
20210515115513 0 236 4.0 7.0 0.00 0.00 0.00 1023.7
20210515115011 0 227 4.0 9.0 0.00 0.00 0.00 1023.7
20210515114511 0 220 5.0 8.0 0.00 0.00 0.00 1023.6
20210515114015 0 233 5.0 9.0 0.00 0.00 0.00 1023.6
20210515113506 0 229 4.0 8.0 0.00 0.00 0.00 1023.6
20210515113009 0 231 4.0 5.0 0.00 0.00 0.00 1023.5
20210515112507 0 211 3.0 5.0 0.00 0.00 0.00 1023.5
20210515112002 0 360 3.0 5.0 0.00 0.00 0.00 1023.5
20210515111501 0 360 3.0 5.0 0.00 0.00 0.00 1023.5
20210515111100 0 360 2.0 5.0 0.00 0.00 0.00 1023.5
20210515110608 0 228 2.0 4.0 0.00 0.00 0.00 1023.5
20210515110149 0 227 2.0 5.0 0.00 0.00 0.00 1023.5
20210515105624 0 360 2.0 5.0 0.00 0.00 0.00 1023.5
20210515105058 0 360 3.0 5.0 0.00 0.00 0.00 1023.4
20210515104643 0 360 3.0 6.0 0.00 0.00 0.00 1023.4
20210515104100 0 360 3.0 6.0 0.00 0.00 0.00 1023.4
20210515103610 0 360 3.0 5.0 0.00 0.00 0.00 1023.3
20210515103139 0 360 2.0 4.0 0.00 0.00 0.00 1023.3
20210515102547 0 360 3.0 5.0 0.00 0.00 0.00 1023.3
20210515102044 0 214 3.0 5.0 0.00 0.00 0.00 1023.3
20210515101605 0 218 3.0 5.0 0.00 0.00 0.00 1023.2
20210515101043 0 217 4.0 5.0 0.00 0.00 0.00 1023.1
20210515100540 0 217 3.0 6.0 0.00 0.00 0.00 1023.1
20210515100130 0 227 3.0 6.0 0.00 0.00 0.00 1023.1
20210515095537 0 219 4.0 6.0 0.00 0.00 0.00 1023.1
20210515095035 0 222 4.0 6.0 0.00 0.00 0.00 1023.1
20210515094552 0 223 4.0 6.0 0.00 0.00 0.00 1023.0
20210515094036 0 214 3.0 5.0 0.00 0.00 0.00 1023.0
20210515093531 0 229 3.0 5.0 0.00 0.00 0.00 1023.0
20210515093050 0 229 3.0 5.0 0.00 0.00 0.00 1022.9
20210515092529 0 211 3.0 5.0 0.00 0.00 0.00 1022.9
20210515092028 0 217 3.0 6.0 0.00 0.00 0.00 1022.9
20210515091554 0 212 3.0 6.0 0.00 0.00 0.00 1022.8
20210515091026 0 211 3.0 6.0 0.00 0.00 0.00 1022.8
20210515090527 0 213 4.0 6.0 0.00 0.00 0.00 1022.7
20210515090116 0 205 4.0 6.0 0.00 0.00 0.00 1022.7
20210515085552 0 209 4.0 6.0 0.00 0.00 0.00 1022.7
20210515085026 0 207 3.0 6.0 0.00 0.00 0.00 1022.7
20210515084530 0 205 3.0 6.0 0.00 0.00 0.00 1022.7
20210515084024 0 209 3.0 6.0 0.00 0.00 0.00 1022.7
20210515083521 0 200 3.0 6.0 0.00 0.00 0.00 1022.7
20210515083015 0 200 3.0 7.0 0.00 0.00 0.00 1022.7
20210515082510 0 205 4.0 7.0 0.00 0.00 0.00 1022.7
20210515082009 0 231 4.0 6.0 0.00 0.00 0.00 1022.7
20210515081509 0 210 3.0 8.0 0.00 0.00 0.00 1022.7
20210515081008 0 202 4.0 8.0 0.00 0.00 0.00 1022.8
20210515080507 0 201 5.0 8.0 0.00 0.00 0.00 1022.8
20210515080006 0 202 4.0 8.0 0.00 0.00 0.00 1022.8
20210515075508 0 207 4.0 8.0 0.00 0.00 0.00 1022.7
20210515075002 0 209 5.0 10.0 0.00 0.00 0.00 1022.7
20210515074059 0 194 5.0 9.0 0.00 0.00 0.00 1022.7
20210515073558 0 206 5.0 9.0 0.00 0.00 0.00 1022.6
20210515073142 0 219 6.0 9.0 0.00 0.00 0.00 1022.7
20210515072557 0 202 5.0 10.0 0.00 0.00 0.00 1022.7
20210515072056 0 201 6.0 10.0 0.00 0.00 0.00 1022.7
20210515071555 0 181 5.0 9.0 0.00 0.00 0.00 1022.7
20210515071050 0 213 5.0 10.0 0.00 0.00 0.00 1022.7
20210515070549 0 194 6.0 10.0 0.00 0.00 0.00 1022.7
20210515070107 0 203 7.0 10.0 0.00 0.00 0.00 1022.7
20210515065607 0 224 6.0 10.0 0.00 0.00 0.00 1022.8
20210515065058 0 206 6.0 10.0 0.00 0.00 0.00 1022.8
20210515064723 0 203 7.0 10.0 0.00 0.00 0.00 1022.8
20210515064052 0 194 6.0 10.0 0.00 0.00 0.00 1022.8
20210515063540 0 213 6.0 10.0 0.00 0.00 0.00 1022.8
20210515063103 0 198 6.0 9.0 0.00 0.00 0.00 1022.8
20210515062545 0 208 6.0 9.0 0.00 0.00 0.00 1022.9
20210515062051 0 214 6.0 9.0 0.00 0.00 0.00 1022.9
20210515061619 0 196 5.0 9.0 0.00 0.00 0.00 1022.9
20210515061032 0 203 5.0 9.0 0.00 0.00 0.00 1022.9
20210515060531 0 214 4.0 7.0 0.00 0.00 0.00 1022.9
20210515060119 0 202 4.0 7.0 0.00 0.00 0.00 1022.9
20210515055617 0 200 4.0 7.0 0.00 0.00 0.00 1022.9
20210515055029 0 213 4.0 7.0 0.00 0.00 0.00 1022.9
20210515054529 0 200 4.0 7.0 0.00 0.00 0.00 1022.9
20210515054032 0 214 4.0 7.0 0.00 0.00 0.00 1023.0
20210515053539 0 205 4.0 7.0 0.00 0.00 0.00 1022.9
20210515053024 0 209 4.0 7.0 0.00 0.00 0.00 1023.0
20210515052525 0 197 4.0 6.0 0.00 0.00 0.00 1023.0
20210515052036 0 204 4.0 6.0 0.00 0.00 0.00 1022.9
20210515051526 0 202 2.0 6.0 0.00 0.00 0.00 1022.9
20210515051014 0 207 3.0 5.0 0.00 0.00 0.00 1023.0
20210515050512 0 203 3.0 7.0 0.00 0.00 0.00 1022.9
20210515050012 0 221 3.0 7.0 0.00 0.00 0.00 1023.0
20210515045511 0 200 4.0 7.0 0.00 0.00 0.00 1022.9
20210515045019 0 206 3.0 6.0 0.00 0.00 0.00 1022.9
20210515044514 0 203 3.0 7.0 0.00 0.00 0.00 1022.9
20210515044004 0 360 3.0 7.0 0.00 0.00 0.00 1022.9
20210515043503 0 207 3.0 7.0 0.00 0.00 0.00 1022.9
20210515043019 0 206 4.0 7.0 0.00 0.00 0.00 1022.8
20210515042601 0 193 3.0 7.0 0.00 0.00 0.00 1022.8
20210515042100 0 200 4.0 6.0 0.00 0.00 0.00 1022.9
20210515041703 0 202 3.0 7.0 0.00 0.00 0.00 1022.9
20210515041058 0 207 3.0 7.0 0.00 0.00 0.00 1023.0
20210515040557 0 200 4.0 7.0 0.00 0.00 0.00 1023.0
20210515040203 0 194 5.0 10.0 0.00 0.00 0.00 1023.0
20210515035601 0 200 5.0 10.0 0.00 0.00 0.00 1023.0
20210515035050 0 198 5.0 9.0 0.00 0.00 0.00 1023.0
20210515034624 0 198 5.0 8.0 0.00 0.00 0.00 1023.0
20210515034108 0 202 5.0 9.0 0.00 0.00 0.00 1023.0
20210515033549 0 190 5.0 9.0 0.00 0.00 0.00 1023.0
20210515033154 0 197 5.0 8.0 0.00 0.00 0.00 1022.9
20210515032552 0 206 5.0 9.0 0.00 0.00 0.00 1023.0
20210515032057 0 192 7.0 9.0 0.00 0.00 0.00 1022.9
20210515031550 0 192 5.0 10.0 0.00 0.00 0.00 1023.0
20210515031038 0 360 6.0 12.0 0.00 0.00 0.00 1023.0
20210515030546 0 360 5.0 13.0 0.00 0.00 0.00 1023.0
20210515030129 0 360 8.0 12.0 0.00 0.00 0.00 1023.1
20210515025603 0 360 8.0 12.0 0.00 0.00 0.00 1023.2
20210515025038 0 360 8.0 13.0 0.00 0.00 0.00 1023.2
20210515024604 0 360 9.0 13.0 0.00 0.00 0.00 1023.2
20210515024029 0 360 7.0 13.0 0.00 0.00 0.00 1023.3
20210515023528 0 360 9.0 13.0 0.00 0.00 0.00 1023.2
20210515023152 0 360 7.0 13.0 0.00 0.00 0.00 1023.2
20210515022524 0 360 8.0 13.0 0.00 0.00 0.00 1023.2
20210515022023 0 360 8.0 12.0 0.00 0.00 0.00 1023.2
20210515021550 0 360 7.0 11.0 0.00 0.00 0.00 1023.3
20210515021032 0 360 7.0 12.0 0.00 0.00 0.00 1023.2
20210515020527 0 360 8.0 12.0 0.00 0.00 0.00 1023.3
20210515020041 0 360 7.0 14.0 0.00 0.00 0.00 1023.3
20210515015516 0 360 8.0 14.0 0.00 0.00 0.00 1023.3
20210515015028 0 360 8.0 13.0 0.00 0.00 0.00 1023.2
20210515014540 0 360 7.0 13.0 0.00 0.00 0.00 1023.2
20210515014011 0 197 7.0 11.0 0.00 0.00 0.00 1023.2
20210515013509 0 200 7.0 12.0 0.00 0.00 0.00 1023.1
20210515013008 0 205 8.0 11.0 0.00 0.00 0.00 1023.1
20210515012509 0 195 7.0 11.0 0.00 0.00 0.00 1023.0
20210515012005 0 178 8.0 14.0 0.00 0.00 0.00 1023.0
20210515011505 0 171 8.0 14.0 0.00 0.00 0.00 1023.0
20210515011002 0 210 8.0 13.0 0.00 0.00 0.00 1022.9
20210515010501 0 189 8.0 13.0 0.00 0.00 0.00 1022.9
20210515010257 0 179 10.0 13.0 0.00 0.00 0.00 1022.8
20210515005558 0 194 7.0 13.0 0.00 0.00 0.00 1022.7
20210515005058 0 171 7.0 13.0 0.00 0.00 0.00 1022.7
20210515004652 0 180 6.0 12.0 0.00 0.00 0.00 1022.7
20210515004053 0 194 7.0 13.0 0.00 0.00 0.00 1022.7
20210515003611 0 184 7.0 13.0 0.00 0.00 0.00 1022.7
20210515003128 0 195 8.0 13.0 0.00 0.00 0.00 1022.7
20210515002600 0 177 8.0 13.0 0.00 0.00 0.00 1022.6
20210515002048 0 184 8.0 15.0 0.00 0.00 0.00 1022.6
20210515001620 0 173 8.0 15.0 0.00 0.00 0.00 1022.6
20210515001044 0 191 9.0 13.0 0.00 0.00 0.00 1022.5
20210515000616 0 170 8.0 11.0 0.00 0.00 0.00 1022.5
20210515000149 0 186 8.0 13.0 0.00 0.00 0.00 1022.4
20210514235550 0 161 7.0 14.0 0.00 0.00 0.00 1022.5
20210514235056 0 184 8.0 14.0 0.00 0.00 0.00 1022.5
20210514234623 0 185 6.0 12.0 0.00 0.00 0.00 1022.4
20210514234035 0 360 5.0 11.0 0.00 0.00 0.00 1022.3
20210514233534 0 360 6.0 12.0 0.00 0.00 0.00 1022.3
20210514233118 0 195 7.0 13.0 0.00 0.00 0.00 1022.2
20210514232531 0 173 8.0 12.0 0.00 0.00 0.00 1022.2
20210514232045 0 190 6.0 13.0 0.00 0.00 0.00 1022.2
20210514231620 0 172 7.0 15.0 0.00 0.00 0.00 1022.2
20210514231026 0 182 8.0 15.0 0.00 0.00 0.00 1022.2
20210514230528 0 207 6.0 14.0 0.00 0.00 0.00 1022.2
20210514230115 0 188 7.0 14.0 0.00 0.00 0.00 1022.3
20210514225534 0 193 8.0 13.0 0.00 0.00 0.00 1022.2
20210514225021 0 178 8.0 14.0 0.00 0.00 0.00 1022.2
20210514224539 0 184 9.0 14.0 0.00 0.00 0.00 1022.2
20210514224035 0 180 8.0 13.0 0.00 0.00 0.00 1022.2
20210514223527 0 176 8.0 13.0 0.00 0.00 0.00 1022.3
20210514223032 0 360 8.0 12.0 0.00 0.00 0.00 1022.3
20210514222518 0 360 8.0 12.0 0.00 0.00 0.00 1022.4
20210514222015 0 174 7.0 16.0 0.00 0.00 0.00 1022.4
20210514221518 0 182 10.0 16.0 0.00 0.00 0.00 1022.4
20210514221038 0 360 9.0 13.0 0.00 0.00 0.00 1022.4
20210514220510 0 182 5.0 11.0 0.00 0.00 0.00 1022.5
20210514220007 0 206 7.0 11.0 0.00 0.00 0.00 1022.5
20210514215504 0 360 6.0 12.0 0.00 0.00 0.00 1022.5
20210514215002 0 173 5.0 10.0 0.00 0.00 0.00 1022.5
20210514214503 0 157 5.0 11.0 0.00 0.00 0.00 1022.5
20210514214100 0 180 6.0 11.0 0.00 0.00 0.00 1022.6
20210514213559 0 157 6.0 10.0 0.00 0.00 0.00 1022.6
20210514213111 0 175 6.0 11.0 0.00 0.00 0.00 1022.6
20210514212558 0 159 6.0 11.0 0.00 0.00 0.00 1022.6
20210514212124 0 159 7.0 12.0 0.00 0.00 0.00 1022.5
20210514211620 0 167 6.0 12.0 0.00 0.00 0.00 1022.6
20210514211051 0 163 6.0 9.0 0.00 0.00 0.00 1022.6
20210514210623 0 181 5.0 12.0 0.00 0.00 0.00 1022.5
20210514210147 0 360 7.0 12.0 0.00 0.00 0.00 1022.5
20210514205630 0 360 6.0 11.0 0.00 0.00 0.00 1022.5
20210514205043 0 360 7.0 11.0 0.00 0.00 0.00 1022.5
20210514204616 0 159 5.0 10.0 0.00 0.00 0.00 1022.6
20210514204048 0 179 6.0 10.0 0.00 0.00 0.00 1022.6
20210514203538 0 142 6.0 10.0 0.00 0.00 0.00 1022.6
20210514203100 0 169 6.0 11.0 0.00 0.00 0.00 1022.7
20210514202541 0 172 6.0 11.0 0.00 0.00 0.00 1022.7
20210514202034 0 170 7.0 10.0 0.00 0.00 0.00 1022.8
20210514201558 0 173 6.0 11.0 0.00 0.00 0.00 1022.7
20210514201031 0 183 6.0 10.0 0.00 0.00 0.00 1022.7
20210514200554 0 168 5.0 9.0 0.00 0.00 0.00 1022.7
20210514200044 0 167 5.0 8.0 0.00 0.00 0.00 1022.6
20210514195534 0 153 5.0 7.0 0.00 0.00 0.00 1022.7
20210514195025 0 158 5.0 8.0 0.00 0.00 0.00 1022.7
20210514194548 0 178 5.0 8.0 0.00 0.00 0.00 1022.8
20210514194032 0 150 5.0 8.0 0.00 0.00 0.00 1022.8
20210514193520 0 174 5.0 9.0 0.00 0.00 0.00 1022.9
20210514193024 0 159 5.0 9.0 0.00 0.00 0.00 1022.9
20210514192525 0 171 5.0 8.0 0.00 0.00 0.00 1022.9
20210514192015 0 164 5.0 9.0 0.00 0.00 0.00 1023.0
20210514191013 0 159 5.0 9.0 0.00 0.00 0.00 1023.0
20210514190511 0 169 6.0 9.0 0.00 0.00 0.00 1023.0
20210514190012 0 180 5.0 8.0 0.00 0.00 0.00 1023.1
20210514185508 0 154 5.0 10.0 0.00 0.00 0.00 1023.1
20210514185018 0 360 5.0 9.0 0.00 0.00 0.00 1023.1
20210514184505 0 168 5.0 9.0 0.00 0.00 0.00 1023.1
20210514184006 0 171 6.0 9.0 0.00 0.00 0.00 1023.1
20210514183506 0 184 5.0 8.0 0.00 0.00 0.00 1023.1
20210514183006 0 173 6.0 8.0 0.00 0.00 0.00 1023.1
20210514182600 0 159 5.0 9.0 0.00 0.00 0.00 1023.2
20210514182102 0 157 4.0 8.0 0.00 0.00 0.00 1023.2
20210514181633 0 159 6.0 9.0 0.00 0.00 0.00 1023.2
20210514181058 0 178 5.0 8.0 0.00 0.00 0.00 1023.2
20210514180553 0 173 5.0 8.0 0.00 0.00 0.00 1023.2
20210514180146 0 173 6.0 8.0 0.00 0.00 0.00 1023.3
20210514175551 0 167 5.0 8.0 0.00 0.00 0.00 1023.3
20210514175055 0 165 4.0 9.0 0.00 0.00 0.00 1023.3
20210514174704 0 154 5.0 9.0 0.00 0.00 0.00 1023.3